EW8484 Weather Reports


Display with metric or nautical units.
time (UTC)temp
F
wind
direction
speed
MPH
gust
MPH
rain 1hr
in
rain 24hr
in
rain mn
in
humidity
%
barometer
mb
20260905161027 73 8 2.0 8.0 0.00 0.00 0.00 29 1012.0
20260905160527 73 308 3.0 8.0 0.00 0.00 0.00 29 1012.1
20260905160027 73 349 3.0 6.0 0.00 0.00 0.00 34 1012.1
20260905155527 73 344 3.0 8.0 0.00 0.00 0.00 32 1012.1
20260905155027 73 39 2.0 4.0 0.00 0.00 0.00 31 1012.1
20260905154527 73 353 3.0 6.0 0.00 0.00 0.00 31 1012.2
20260905154027 72 56 2.0 4.0 0.00 0.00 0.00 32 1012.3
20260905153527 72 53 3.0 6.0 0.00 0.00 0.00 32 1012.3
20260905153026 72 15 3.0 6.0 0.00 0.00 0.00 31 1012.4
20260905152527 73 355 2.0 5.0 0.00 0.00 0.00 32 1012.4
20260905152027 72 354 2.0 7.0 0.00 0.00 0.00 31 1012.3
20260905151526 72 344 4.0 9.0 0.00 0.00 0.00 30 1012.3
20260905151047 72 356 3.0 6.0 0.00 0.00 0.00 29 1012.4
20260905150546 72 19 3.0 6.0 0.00 0.00 0.00 31 1012.4
20260905150027 71 359 2.0 4.0 0.00 0.00 0.00 32 1012.4
20260905145527 71 34 3.0 8.0 0.00 0.00 0.00 30 1012.2
20260905145026 71 353 2.0 5.0 0.00 0.00 0.00 33 1012.3
20260905144547 70 360 2.0 5.0 0.00 0.00 0.00 34 1012.3
20260905144026 69 350 3.0 8.0 0.00 0.00 0.00 34 1012.2
20260905143526 69 331 3.0 9.0 0.00 0.00 0.00 32 1012.4
20260905143026 69 354 3.0 8.0 0.00 0.00 0.00 33 1012.3
20260905142527 69 352 2.0 8.0 0.00 0.00 0.00 33 1012.5
20260905142026 68 333 3.0 11.0 0.00 0.00 0.00 32 1012.4
20260905141526 68 344 1.0 5.0 0.00 0.00 0.00 36 1012.4
20260905141046 68 350 2.0 6.0 0.00 0.00 0.00 34 1012.5
20260905140526 68 338 3.0 8.0 0.00 0.00 0.00 34 1012.6
20260905140027 68 335 2.0 7.0 0.00 0.00 0.00 35 1012.4
20260905135526 68 343 2.0 4.0 0.00 0.00 0.00 36 1012.5
20260905135026 67 8 3.0 7.0 0.00 0.00 0.00 36 1012.5
20260905134527 67 312 2.0 4.0 0.00 0.00 0.00 37 1012.4
20260905134027 68 6 3.0 8.0 0.00 0.00 0.00 38 1012.4
20260905133526 67 359 2.0 6.0 0.00 0.00 0.00 40 1012.4
20260905133026 66 357 2.0 4.0 0.00 0.00 0.00 40 1012.3
20260905132526 66 344 1.0 4.0 0.00 0.00 0.00 41 1012.3
20260905132026 66 344 3.0 6.0 0.00 0.00 0.00 42 1012.2
20260905131526 65 344 2.0 5.0 0.00 0.00 0.00 43 1012.2
20260905131047 64 2 3.0 6.0 0.00 0.00 0.00 44 1012.6
20260905130526 64 1 3.0 8.0 0.00 0.00 0.00 45 1012.5
20260905130026 64 358 1.0 4.0 0.00 0.00 0.00 45 1012.5
20260905125526 63 350 1.0 5.0 0.00 0.00 0.00 45 1012.6
20260905125027 63 7 1.0 5.0 0.00 0.00 0.00 45 1012.6
20260905124526 63 350 1.0 5.0 0.00 0.00 0.00 45 1012.6
20260905124026 62 0.0 0.0 0.00 0.00 0.00 46 1012.6
20260905123546 62 0.0 0.0 0.00 0.00 0.00 45 1012.6
20260905123026 61 0.0 0.0 0.00 0.00 0.00 45 1012.4
20260905122526 61 0.0 0.0 0.00 0.00 0.00 46 1012.4
20260905122026 61 0.0 0.0 0.00 0.00 0.00 46 1012.4
20260905121526 60 0.0 0.0 0.00 0.00 0.00 46 1012.4
20260905121026 60 0.0 0.0 0.00 0.00 0.00 46 1012.3
20260905120526 60 0.0 0.0 0.00 0.00 0.00 46 1012.2
20260905120046 59 0.0 0.0 0.00 0.00 0.00 46 1012.2
20260905115526 59 0.0 0.0 0.00 0.00 0.00 46 1012.2
20260905115026 58 0.0 0.0 0.00 0.00 0.00 46 1012.0
20260905114526 57 0.0 0.0 0.00 0.00 0.00 47 1012.0
20260905114026 56 0.0 0.0 0.00 0.00 0.00 46 1011.9
20260905113526 55 0.0 0.0 0.00 0.00 0.00 47 1011.9
20260905113026 55 0.0 0.0 0.00 0.00 0.00 46 1011.9
20260905112526 55 0.0 0.0 0.00 0.00 0.00 46 1011.9
20260905112026 54 0.0 0.0 0.00 0.00 0.00 46 1011.9
20260905111526 54 0.0 0.0 0.00 0.00 0.00 46 1011.9
20260905111026 54 0.0 0.0 0.00 0.00 0.00 46 1011.8
20260905110526 54 0.0 0.0 0.00 0.00 0.00 46 1011.7
20260905110026 54 0.0 0.0 0.00 0.00 0.00 46 1011.7
20260905105526 54 0.0 0.0 0.00 0.00 0.00 46 1011.6
20260905105026 54 0.0 0.0 0.00 0.00 0.00 46 1011.6
20260905104546 54 0.0 0.0 0.00 0.00 0.00 46 1011.5
20260905104026 54 0.0 0.0 0.00 0.00 0.00 46 1011.6
20260905103526 54 0.0 0.0 0.00 0.00 0.00 46 1011.7
20260905103026 54 0.0 0.0 0.00 0.00 0.00 46 1011.6
20260905102526 54 0.0 0.0 0.00 0.00 0.00 46 1011.6
20260905102026 54 0.0 0.0 0.00 0.00 0.00 46 1011.5
20260905101546 54 0.0 0.0 0.00 0.00 0.00 46 1011.5
20260905101026 54 0.0 0.0 0.00 0.00 0.00 46 1011.5
20260905100526 54 0.0 0.0 0.00 0.00 0.00 46 1011.5
20260905100026 54 0.0 0.0 0.00 0.00 0.00 46 1011.5
20260905095526 54 0.0 0.0 0.00 0.00 0.00 46 1011.6
20260905095026 54 0.0 0.0 0.00 0.00 0.00 46 1011.7
20260905094526 54 0.0 0.0 0.00 0.00 0.00 46 1011.5
20260905094106 54 0.0 0.0 0.00 0.00 0.00 46 1011.5
20260905093526 54 0.0 0.0 0.00 0.00 0.00 46 1011.5
20260905093026 54 0.0 0.0 0.00 0.00 0.00 46 1011.5
20260905092526 54 0.0 0.0 0.00 0.00 0.00 46 1011.5
20260905092026 54 0.0 0.0 0.00 0.00 0.00 46 1011.5
20260905091526 54 0.0 0.0 0.00 0.00 0.00 46 1011.4
20260905091046 54 0.0 0.0 0.00 0.00 0.00 46 1011.4
20260905090526 54 0.0 0.0 0.00 0.00 0.00 46 1011.3
20260905090046 55 0.0 0.0 0.00 0.00 0.00 46 1011.2
20260905085526 55 0.0 0.0 0.00 0.00 0.00 46 1011.2
20260905085026 55 0.0 0.0 0.00 0.00 0.00 46 1011.2
20260905084526 55 0.0 0.0 0.00 0.00 0.00 46 1011.3
20260905084026 55 0.0 0.0 0.00 0.00 0.00 46 1011.3
20260905083606 55 0.0 0.0 0.00 0.00 0.00 46 1011.3
20260905083026 55 0.0 0.0 0.00 0.00 0.00 46 1011.1
20260905082526 55 0.0 0.0 0.00 0.00 0.00 46 1011.2
20260905082026 55 0.0 0.0 0.00 0.00 0.00 46 1011.3
20260905081526 55 0.0 0.0 0.00 0.00 0.00 46 1011.3
20260905081026 55 0.0 0.0 0.00 0.00 0.00 46 1011.4
20260905080525 55 0.0 0.0 0.00 0.00 0.00 46 1011.4
20260905080026 56 0.0 0.0 0.00 0.00 0.00 46 1011.4
20260905075526 56 0.0 0.0 0.00 0.00 0.00 46 1011.5
20260905075046 56 0.0 0.0 0.00 0.00 0.00 46 1011.5
20260905074526 56 0.0 0.0 0.00 0.00 0.00 46 1011.6
20260905074026 56 0.0 0.0 0.00 0.00 0.00 46 1011.5
20260905073526 56 0.0 0.0 0.00 0.00 0.00 45 1011.5
20260905073025 56 0.0 0.0 0.00 0.00 0.00 45 1011.6
20260905072525 56 0.0 0.0 0.00 0.00 0.00 45 1011.6
20260905072046 56 0.0 0.0 0.00 0.00 0.00 45 1011.5
20260905071526 56 0.0 0.0 0.00 0.00 0.00 46 1011.4
20260905071025 56 0.0 0.0 0.00 0.00 0.00 45 1011.4
20260905070526 56 0.0 0.0 0.00 0.00 0.00 45 1011.5
20260905070026 57 0.0 0.0 0.00 0.00 0.00 45 1011.5
20260905065546 57 0.0 0.0 0.00 0.00 0.00 45 1011.6
20260905065026 57 0.0 0.0 0.00 0.00 0.00 45 1011.6
20260905064525 57 0.0 0.0 0.00 0.01 0.00 45 1011.7
20260905064025 57 0.0 0.0 0.00 0.01 0.00 45 1011.7
20260905063526 57 0.0 0.0 0.00 0.01 0.00 45 1011.8
20260905063026 57 0.0 0.0 0.00 0.01 0.00 45 1011.7
20260905062546 57 0.0 0.0 0.00 0.01 0.00 45 1011.7
20260905062025 57 0.0 0.0 0.00 0.01 0.00 45 1011.7
20260905061525 57 0.0 0.0 0.00 0.01 0.00 45 1011.7
20260905061026 58 0.0 0.0 0.00 0.01 0.00 45 1011.8
20260905060526 58 0.0 0.0 0.00 0.01 0.00 45 1011.8
20260905060026 58 0.0 0.0 0.00 0.01 0.00 45 1012.0
20260905055526 58 0.0 0.0 0.00 0.01 0.00 45 1011.9
20260905055025 58 0.0 0.0 0.00 0.01 0.00 45 1012.1
20260905054526 58 0.0 0.0 0.00 0.01 0.00 45 1012.1
20260905054026 58 0.0 0.0 0.00 0.01 0.00 45 1012.2
20260905053545 58 0.0 0.0 0.00 0.01 0.00 45 1012.1
20260905053025 58 0.0 0.0 0.00 0.01 0.00 45 1012.3
20260905052525 58 0.0 0.0 0.00 0.01 0.00 45 1012.3
20260905052025 58 0.0 0.0 0.00 0.01 0.00 45 1012.3
20260905051525 59 0.0 0.0 0.00 0.01 0.00 45 1012.3
20260905051025 59 0.0 0.0 0.00 0.01 0.00 45 1012.3
20260905050525 59 0.0 0.0 0.00 0.01 0.00 45 1012.3
20260905050026 59 0.0 0.0 0.00 0.01 0.00 45 1012.6
20260905045525 59 0.0 0.0 0.00 0.01 0.00 45 1012.5
20260905045025 59 0.0 0.0 0.00 0.01 0.00 45 1012.5
20260905044525 59 0.0 0.0 0.00 0.01 0.00 45 1012.4
20260905044025 59 0.0 0.0 0.00 0.01 0.00 45 1012.4
20260905043526 59 0.0 0.0 0.00 0.01 0.00 45 1012.2
20260905043026 59 0.0 0.0 0.00 0.01 0.00 44 1012.2
20260905042525 60 0.0 0.0 0.00 0.01 0.00 44 1012.2
20260905042025 60 0.0 0.0 0.00 0.01 0.00 44 1012.1
20260905041525 60 0.0 0.0 0.00 0.01 0.00 44 1012.1
20260905041025 60 0.0 0.0 0.00 0.01 0.00 44 1011.9
20260905040525 60 0.0 0.0 0.00 0.01 0.00 44 1012.0
20260905040025 60 0.0 0.0 0.00 0.01 0.01 44 1011.9
20260905035525 60 0.0 0.0 0.00 0.01 0.01 44 1011.9
20260905035026 60 0.0 0.0 0.00 0.01 0.01 44 1011.9
20260905034546 60 0.0 0.0 0.00 0.01 0.01 44 1011.9
20260905034025 61 0.0 0.0 0.00 0.01 0.01 44 1012.0
20260905033525 61 0.0 0.0 0.00 0.01 0.01 44 1012.1
20260905033025 61 0.0 0.0 0.00 0.01 0.01 44 1012.1
20260905032545 61 0.0 0.0 0.00 0.01 0.01 44 1012.0
20260905032025 61 0.0 0.0 0.00 0.01 0.01 43 1012.0
20260905031525 61 0.0 0.0 0.00 0.01 0.01 43 1012.2
20260905031026 61 0.0 0.0 0.00 0.01 0.01 43 1012.2
20260905030525 61 0.0 0.0 0.00 0.01 0.01 43 1012.2
20260905030025 61 0.0 0.0 0.00 0.01 0.01 43 1012.2
20260905025525 62 0.0 0.0 0.00 0.01 0.01 43 1012.2
20260905025025 62 0.0 0.0 0.00 0.01 0.01 43 1012.1
20260905024545 62 0.0 0.0 0.00 0.01 0.01 43 1012.0
20260905024025 62 0.0 0.0 0.00 0.01 0.01 42 1011.9
20260905023525 62 0.0 0.0 0.00 0.01 0.01 42 1011.9
20260905023025 62 0.0 0.0 0.00 0.01 0.01 42 1012.0
20260905022525 62 0.0 0.0 0.00 0.01 0.01 41 1012.0
20260905022025 62 0.0 0.0 0.00 0.01 0.01 41 1012.0
20260905021525 63 0.0 0.0 0.00 0.01 0.01 41 1012.0
20260905021025 63 0.0 0.0 0.00 0.01 0.01 40 1012.1
20260905020525 63 0.0 0.0 0.00 0.01 0.01 40 1012.2
20260905020045 63 0.0 0.0 0.00 0.01 0.01 40 1012.3
20260905015525 63 0.0 0.0 0.00 0.01 0.01 40 1012.0
20260905015025 63 0.0 0.0 0.00 0.01 0.01 39 1012.3
20260905014530 63 0.0 0.0 0.00 0.01 0.01 39 1012.1
20260905014025 64 0.0 0.0 0.00 0.01 0.01 39 1012.1
20260905013525 64 0.0 0.0 0.00 0.01 0.01 38 1012.4
20260905013025 64 0.0 0.0 0.00 0.01 0.01 38 1012.4
20260905012545 64 0.0 0.0 0.00 0.01 0.01 37 1012.3
20260905012025 64 0.0 0.0 0.00 0.01 0.01 37 1012.4
20260905011525 64 0.0 0.0 0.00 0.01 0.01 37 1012.3
20260905011025 64 0.0 0.0 0.00 0.01 0.01 37 1012.2
20260905010525 64 0.0 0.0 0.00 0.01 0.01 36 1012.2
20260905010025 64 0.0 0.0 0.00 0.01 0.01 36 1012.3
20260905005525 64 0.0 0.0 0.00 0.01 0.01 35 1012.4
20260905005025 65 0.0 0.0 0.00 0.01 0.01 35 1012.5
20260905004525 65 0.0 0.0 0.00 0.01 0.01 34 1012.3
20260905004025 65 0.0 0.0 0.00 0.01 0.01 35 1012.2
20260905003525 65 0.0 0.0 0.00 0.01 0.01 35 1012.2
20260905003025 65 0.0 0.0 0.00 0.01 0.01 37 1012.1
20260905002525 65 0.0 0.0 0.00 0.01 0.01 38 1012.0
20260905002025 65 0.0 0.0 0.00 0.01 0.01 40 1012.0
20260905001525 65 0.0 0.0 0.00 0.01 0.01 44 1011.8
20260905001025 66 0.0 0.0 0.00 0.01 0.01 47 1011.8
20260905000552 66 0.0 0.0 0.00 0.01 0.01 48 1011.8
20260905000027 66 0.0 0.0 0.00 0.01 0.01 49 1011.7
20260904235527 66 0.0 0.0 0.00 0.01 0.01 50 1011.7
20260904235027 67 0.0 0.0 0.00 0.01 0.01 52 1011.7
20260904234527 67 0.0 0.0 0.00 0.01 0.01 53 1011.7
20260904234047 67 0.0 0.0 0.00 0.01 0.01 53 1011.5
20260904233527 68 0.0 0.0 0.00 0.01 0.01 53 1011.6
20260904233027 68 0.0 0.0 0.00 0.01 0.01 53 1011.7
20260904232527 68 0.0 0.0 0.00 0.01 0.01 54 1011.6
20260904232025 69 0.0 0.0 0.00 0.01 0.01 54 1011.7
20260904231547 69 0.0 0.0 0.00 0.01 0.01 57 1011.7
20260904231027 69 0.0 0.0 0.00 0.01 0.01 57 1011.6
20260904230527 70 0.0 0.0 0.00 0.01 0.01 57 1011.6
20260904230047 70 0.0 0.0 0.00 0.01 0.01 57 1011.6
20260904225527 70 0.0 0.0 0.00 0.01 0.01 58 1011.5
20260904225027 70 0.0 0.0 0.00 0.01 0.01 59 1011.6
20260904224527 71 0.0 0.0 0.00 0.01 0.01 59 1011.5
20260904224027 71 0.0 0.0 0.00 0.01 0.01 59 1011.5
20260904223527 71 0.0 0.0 0.00 0.01 0.01 60 1011.3
20260904223027 71 0.0 0.0 0.00 0.01 0.01 59 1011.4
20260904222527 72 0.0 0.0 0.00 0.01 0.01 59 1011.4
20260904222047 72 0.0 0.0 0.00 0.01 0.01 58 1011.4
20260904221525 72 0.0 0.0 0.00 0.01 0.01 58 1011.3
20260904221027 72 0.0 0.0 0.00 0.01 0.01 56 1011.3
20260904220547 73 0.0 0.0 0.00 0.01 0.01 55 1011.3
20260904220027 73 0.0 0.0 0.00 0.01 0.01 57 1011.3
20260904215527 73 0.0 0.0 0.00 0.01 0.01 57 1011.3
20260904215027 73 0.0 0.0 0.00 0.01 0.01 57 1011.4
20260904214527 73 0.0 0.0 0.00 0.01 0.01 57 1011.1
20260904214027 74 0.0 0.0 0.00 0.01 0.01 57 1011.2
20260904213527 74 0.0 0.0 0.00 0.01 0.01 56 1011.3
20260904213027 75 0.0 0.0 0.00 0.01 0.01 55 1011.5
20260904212526 75 0.0 0.0 0.00 0.02 0.01 53 1011.4
20260904212027 76 0 1.0 6.0 0.00 0.02 0.01 52 1011.5
20260904211527 77 0.0 3.0 0.00 0.03 0.01 50 1011.5
20260904211027 77 0.0 1.0 0.00 0.03 0.01 48 1011.5
20260904210527 77 0.0 2.0 0.00 0.03 0.01 46 1011.6
20260904210027 77 16 2.0 5.0 0.00 0.03 0.01 46 1011.5
20260904205527 77 11 1.0 6.0 0.00 0.03 0.01 48 1011.4
20260904205027 77 25 1.0 5.0 0.00 0.03 0.01 47 1011.4
20260904204547 77 345 1.0 4.0 0.00 0.03 0.01 48 1011.4
20260904204027 77 345 2.0 8.0 0.00 0.03 0.01 48 1011.2
20260904203526 77 3 2.0 6.0 0.00 0.03 0.01 47 1011.4
20260904203026 78 5 2.0 5.0 0.00 0.03 0.01 46 1011.4
20260904202527 78 19 3.0 10.0 0.00 0.03 0.01 46 1011.4
20260904202027 78 5 2.0 6.0 0.00 0.03 0.01 47 1011.5
20260904201547 78 54 1.0 6.0 0.00 0.03 0.01 51 1011.5
20260904201026 79 357 1.0 3.0 0.00 0.03 0.01 46 1011.6
20260904200606 79 335 2.0 8.0 0.00 0.03 0.01 46 1011.6
20260904200027 80 2 2.0 10.0 0.00 0.03 0.01 44 1011.7
20260904195547 80 336 1.0 5.0 0.00 0.03 0.01 46 1011.7
20260904195027 80 83 1.0 6.0 0.00 0.03 0.01 44 1011.6
20260904194527 80 338 1.0 5.0 0.00 0.03 0.01 44 1011.7
20260904194026 80 347 3.0 9.0 0.00 0.03 0.01 43 1011.6
20260904193526 80 320 1.0 5.0 0.00 0.03 0.01 42 1011.5
20260904193027 80 350 2.0 5.0 0.00 0.03 0.01 45 1011.5
20260904192526 80 345 3.0 9.0 0.00 0.03 0.01 41 1011.5
20260904192027 81 293 2.0 3.0 0.00 0.03 0.01 43 1011.5
20260904191527 81 2 2.0 9.0 0.00 0.03 0.01 43 1011.3
20260904191026 81 340 1.0 4.0 0.00 0.03 0.01 46 1011.4
20260904190527 81 305 1.0 4.0 0.00 0.03 0.01 44 1011.4
20260904190026 81 315 2.0 5.0 0.00 0.03 0.01 43 1011.5
20260904185526 80 7 3.0 12.0 0.00 0.03 0.01 41 1011.5
20260904185047 81 341 3.0 9.0 0.00 0.03 0.01 40 1011.6
20260904184526 81 338 2.0 8.0 0.00 0.03 0.01 48 1011.6
20260904184026 81 355 2.0 9.0 0.00 0.03 0.01 44 1011.7
20260904183526 80 353 2.0 10.0 0.00 0.03 0.01 44 1011.8
20260904183026 80 357 3.0 9.0 0.00 0.03 0.01 41 1011.9
20260904182526 80 359 3.0 8.0 0.00 0.03 0.01 42 1011.9
20260904182046 80 335 3.0 9.0 0.00 0.03 0.01 44 1011.9
20260904181526 80 342 2.0 5.0 0.00 0.03 0.01 48 1011.8
20260904181046 79 330 1.0 4.0 0.00 0.03 0.01 47 1011.7
20260904180526 79 348 2.0 6.0 0.00 0.03 0.01 46 1011.7
20260904180026 79 355 3.0 8.0 0.00 0.03 0.01 44 1011.9
20260904175526 80 352 2.0 8.0 0.00 0.03 0.01 45 1011.7
20260904175026 80 25 1.0 6.0 0.00 0.03 0.01 45 1011.7
20260904174526 80 8 4.0 8.0 0.00 0.03 0.01 44 1011.8
20260904174026 79 4 2.0 6.0 0.00 0.03 0.01 45 1011.7
20260904173526 80 357 3.0 6.0 0.00 0.03 0.01 40 1011.8
20260904173026 79 9 2.0 10.0 0.00 0.03 0.01 41 1011.8
20260904172546 79 8 2.0 8.0 0.00 0.03 0.01 40 1011.9
20260904172026 79 356 1.0 2.0 0.00 0.03 0.01 44 1012.0
20260904171546 79 8 1.0 3.0 0.00 0.03 0.01 42 1012.0
20260904171026 78 344 2.0 5.0 0.00 0.03 0.01 43 1012.1
20260904170526 78 334 1.0 3.0 0.00 0.03 0.01 45 1012.1
20260904170106 77 334 1.0 2.0 0.00 0.03 0.01 45 1012.2
20260904165526 78 0.0 4.0 0.00 0.03 0.01 44 1012.2
20260904165026 78 358 2.0 6.0 0.00 0.03 0.01 42 1012.2
20260904164526 79 355 4.0 9.0 0.00 0.03 0.01 40 1012.3
20260904164026 79 357 2.0 6.0 0.00 0.03 0.01 29 1012.3
20260904163526 78 346 3.0 9.0 0.00 0.03 0.01 28 1012.2
20260904163026 78 14 2.0 8.0 0.00 0.03 0.01 29 1012.2
20260904162526 78 331 3.0 7.0 0.00 0.03 0.01 27 1012.3
20260904162026 78 2 3.0 11.0 0.00 0.03 0.01 28 1012.5
20260904161526 78 4 3.0 7.0 0.00 0.03 0.01 28 1012.5